Time,TemperatureF,DewpointF,PressureIn,WindDirection,WindDirectionDegrees,WindSpeedMPH,WindSpeedGustMPH,Humidity,HourlyPrecipIn,Conditions,Clouds,dailyrainin,SoftwareType,DateUTC
2013-10-15 00:13:00,42.0,40.0,30.24,NE,51,5.0,11.0,94,0.04,,,0.79,,2013-10-15 05:13:00,
2013-10-15 00:22:00,42.0,40.0,30.23,NE,43,5.0,11.0,94,0.04,,,0.80,,2013-10-15 05:22:00,
2013-10-15 00:42:00,42.0,40.0,30.21,NE,36,5.0,8.0,94,0.04,,,0.81,,2013-10-15 05:42:00,
2013-10-15 00:53:00,42.0,40.0,30.21,NE,56,4.0,9.0,94,0.04,,,0.81,,2013-10-15 05:53:00,
2013-10-15 01:12:00,42.0,40.0,30.20,NE,52,5.0,11.0,94,0.03,,,0.82,,2013-10-15 06:12:00,
2013-10-15 01:22:00,42.0,40.0,30.18,ENE,63,6.0,10.0,94,0.02,,,0.82,,2013-10-15 06:22:00,
2013-10-15 01:43:00,42.0,41.0,30.19,NE,56,5.0,14.0,95,0.01,,,0.82,,2013-10-15 06:43:00,
2013-10-15 01:52:00,42.0,41.0,30.19,ENE,65,4.0,11.0,95,0.01,,,0.82,,2013-10-15 06:52:00,
2013-10-15 02:12:00,42.0,40.0,30.19,ENE,63,5.0,8.0,94,0.00,,,0.82,,2013-10-15 07:12:00,
2013-10-15 02:22:00,42.0,40.0,30.19,ENE,61,3.0,12.0,94,0.01,,,0.81,,2013-10-15 07:22:00,
2013-10-15 02:42:00,42.0,40.0,30.17,NE,53,5.0,12.0,94,0.02,,,0.82,,2013-10-15 07:42:00,
2013-10-15 02:53:00,42.0,41.0,30.17,NNE,32,6.0,13.0,95,0.02,,,0.82,,2013-10-15 07:53:00,
2013-10-15 03:12:00,42.0,41.0,30.16,NE,36,6.0,12.0,95,0.03,,,0.83,,2013-10-15 08:12:00,
2013-10-15 03:22:00,42.0,41.0,30.15,North,11,7.0,15.0,95,0.02,,,0.82,,2013-10-15 08:22:00,
2013-10-15 03:42:00,42.0,41.0,30.15,ENE,74,5.0,16.0,95,0.02,,,0.83,,2013-10-15 08:42:00,
2013-10-15 03:52:00,42.0,41.0,30.16,ENE,58,5.0,17.0,95,0.02,,,0.83,,2013-10-15 08:52:00,
2013-10-15 04:12:00,42.0,41.0,30.16,NE,44,7.0,14.0,95,0.01,,,0.83,,2013-10-15 09:12:00,
2013-10-15 04:22:00,42.0,41.0,30.14,NE,46,7.0,16.0,95,0.02,,,0.84,,2013-10-15 09:22:00,
2013-10-15 04:43:00,42.0,41.0,30.14,North,360,6.0,16.0,95,0.02,,,0.85,,2013-10-15 09:43:00,
2013-10-15 04:53:00,43.0,41.0,30.15,NE,46,6.0,13.0,94,0.03,,,0.86,,2013-10-15 09:53:00,
2013-10-15 05:13:00,43.0,42.0,30.14,ENE,62,5.0,13.0,95,0.04,,,0.87,,2013-10-15 10:13:00,
2013-10-15 05:23:00,43.0,41.0,30.14,NE,44,6.0,13.0,94,0.04,,,0.88,,2013-10-15 10:23:00,
2013-10-15 05:42:00,43.0,41.0,30.14,NNE,23,5.0,12.0,94,0.03,,,0.88,,2013-10-15 10:42:00,
2013-10-15 05:53:00,42.0,40.0,30.13,NE,56,6.0,14.0,94,0.04,,,0.90,,2013-10-15 10:53:00,
2013-10-15 06:11:00,42.0,40.0,30.13,NE,44,5.0,15.0,94,0.04,,,0.91,,2013-10-15 11:11:00,
2013-10-15 06:22:00,42.0,40.0,30.13,NE,36,9.0,13.0,94,0.04,,,0.92,,2013-10-15 11:22:00,
2013-10-15 06:42:00,42.0,40.0,30.13,ENE,58,5.0,12.0,94,0.05,,,0.93,,2013-10-15 11:42:00,
2013-10-15 06:52:00,42.0,40.0,30.13,NE,46,5.0,15.0,94,0.05,,,0.95,,2013-10-15 11:52:00,
2013-10-15 07:12:00,42.0,40.0,30.13,NNE,19,6.0,13.0,94,0.04,,,0.95,,2013-10-15 12:12:00,
2013-10-15 07:22:00,42.0,40.0,30.12,NE,53,8.0,13.0,94,0.04,,,0.96,,2013-10-15 12:22:00,
2013-10-15 07:42:00,42.0,40.0,30.12,NNE,13,7.0,16.0,94,0.05,,,0.98,,2013-10-15 12:42:00,
2013-10-15 07:52:00,42.0,41.0,30.12,NE,37,5.0,13.0,95,0.03,,,0.98,,2013-10-15 12:52:00,
2013-10-15 08:11:00,42.0,40.0,30.12,NNE,27,9.0,16.0,94,0.03,,,0.98,,2013-10-15 13:11:00,
2013-10-15 08:21:00,42.0,40.0,30.12,ENE,60,9.0,15.0,94,0.02,,,0.97,,2013-10-15 13:21:00,
2013-10-15 08:42:00,42.0,40.0,30.13,NNE,30,9.0,17.0,94,0.01,,,0.97,,2013-10-15 13:42:00,
2013-10-15 08:52:00,42.0,40.0,30.13,NNE,32,8.0,15.0,94,0.01,,,0.97,,2013-10-15 13:52:00,
2013-10-15 09:12:00,42.0,41.0,30.13,North,7,11.0,17.0,95,0.02,,,0.98,,2013-10-15 14:12:00,
2013-10-15 09:22:00,42.0,41.0,30.14,NNE,23,9.0,17.0,95,0.03,,,0.98,,2013-10-15 14:22:00,
2013-10-15 09:42:00,42.0,41.0,30.13,NE,37,9.0,17.0,95,0.04,,,0.99,,2013-10-15 14:42:00,
2013-10-15 09:52:00,42.0,41.0,30.14,NNW,348,10.0,18.0,95,0.05,,,1.00,,2013-10-15 14:52:00,
2013-10-15 10:11:00,42.0,40.0,30.14,NNE,33,10.0,15.0,94,0.05,,,1.01,,2013-10-15 15:11:00,
2013-10-15 10:22:00,42.0,40.0,30.14,NNW,343,10.0,17.0,94,0.04,,,1.02,,2013-10-15 15:22:00,
2013-10-15 10:33:00,42.0,40.0,30.14,NNW,343,10.0,17.0,94,0.04,,,1.02,,2013-10-15 15:33:00,
2013-10-15 10:44:00,42.0,40.0,30.14,NNW,343,10.0,17.0,94,0.04,,,1.02,,2013-10-15 15:44:00,
2013-10-15 10:53:00,41.0,39.0,30.14,North,354,8.0,15.0,94,0.03,,,1.03,,2013-10-15 15:53:00,
2013-10-15 11:13:00,41.0,39.0,30.14,NNW,330,6.0,13.0,94,0.03,,,1.04,,2013-10-15 16:13:00,
2013-10-15 11:23:00,41.0,39.0,30.14,NW,325,6.0,14.0,94,0.02,,,1.04,,2013-10-15 16:23:00,
2013-10-15 11:42:00,41.0,39.0,30.14,NW,316,6.0,13.0,93,0.01,,,1.04,,2013-10-15 16:42:00,
2013-10-15 11:53:00,42.0,40.0,30.14,NNW,333,8.0,14.0,91,0.00,,,1.04,,2013-10-15 16:53:00,
2013-10-15 12:12:00,42.0,39.0,30.14,ENE,62,12.0,17.0,89,0.00,,,1.04,,2013-10-15 17:12:00,
2013-10-15 12:22:00,43.0,40.0,30.14,NNW,341,9.0,16.0,88,0.00,,,1.04,,2013-10-15 17:22:00,
2013-10-15 12:42:00,43.0,40.0,30.14,North,6,10.0,20.0,88,0.00,,,1.04,,2013-10-15 17:42:00,
2013-10-15 12:53:00,43.0,39.0,30.14,North,6,10.0,16.0,87,0.00,,,1.04,,2013-10-15 17:53:00,
2013-10-15 13:12:00,44.0,41.0,30.14,WNW,302,8.0,17.0,88,0.00,,,1.04,,2013-10-15 18:12:00,
2013-10-15 13:22:00,42.0,38.0,30.14,NNW,338,9.0,19.0,87,0.00,,,1.03,,2013-10-15 18:22:00,
2013-10-15 13:42:00,42.0,38.0,30.14,NNW,334,9.0,18.0,87,0.00,,,1.03,,2013-10-15 18:42:00,
2013-10-15 13:52:00,42.0,38.0,30.13,North,11,10.0,16.0,86,0.00,,,1.03,,2013-10-15 18:52:00,
2013-10-15 14:12:00,42.0,38.0,30.12,North,360,8.0,17.0,86,0.00,,,1.03,,2013-10-15 19:12:00,
2013-10-15 14:22:00,42.0,38.0,30.13,North,6,9.0,19.0,85,0.00,,,1.03,,2013-10-15 19:22:00,
2013-10-15 14:42:00,42.0,37.0,30.12,NNW,333,10.0,20.0,83,0.00,,,1.03,,2013-10-15 19:42:00,
2013-10-15 14:52:00,44.0,39.0,30.12,NW,321,12.0,22.0,82,0.00,,,1.03,,2013-10-15 19:52:00,
2013-10-15 15:12:00,45.0,40.0,30.11,NNW,331,11.0,19.0,81,0.00,,,1.03,,2013-10-15 20:12:00,
2013-10-15 15:22:00,45.0,39.0,30.11,North,4,11.0,20.0,78,0.00,,,1.00,,2013-10-15 20:22:00,
2013-10-15 15:42:00,44.0,39.0,30.11,North,355,8.0,18.0,81,0.00,,,1.00,,2013-10-15 20:42:00,
2013-10-15 15:52:00,42.0,37.0,30.11,NW,325,7.0,18.0,83,0.00,,,1.00,,2013-10-15 20:52:00,
2013-10-15 16:13:00,43.0,39.0,30.11,NNW,333,5.0,12.0,86,0.00,,,1.00,,2013-10-15 21:13:00,
2013-10-15 16:22:00,46.0,40.0,30.11,NW,315,8.0,15.0,79,0.00,,,0.90,,2013-10-15 21:22:00,
2013-10-15 16:44:00,46.0,39.0,30.11,NW,309,9.0,17.0,77,0.00,,,0.90,,2013-10-15 21:44:00,
2013-10-15 16:54:00,46.0,39.0,30.11,North,354,8.0,14.0,77,0.00,,,0.90,,2013-10-15 21:54:00,
2013-10-15 17:13:00,46.0,39.0,30.11,NNE,30,8.0,17.0,76,0.00,,,0.90,,2013-10-15 22:13:00,
2013-10-15 17:23:00,45.0,38.0,30.11,NNW,329,9.0,16.0,76,0.00,,,0.83,,2013-10-15 22:23:00,
2013-10-15 17:43:00,46.0,39.0,30.11,North,352,7.0,14.0,76,0.00,,,0.83,,2013-10-15 22:43:00,
2013-10-15 17:53:00,45.0,38.0,30.11,NE,44,6.0,17.0,76,0.00,,,0.83,,2013-10-15 22:53:00,
2013-10-15 18:12:00,45.0,38.0,30.11,NNE,18,6.0,13.0,77,0.00,,,0.83,,2013-10-15 23:12:00,
2013-10-15 18:22:00,43.0,36.0,30.11,North,359,7.0,14.0,77,0.00,,,0.78,,2013-10-15 23:22:00,
2013-10-15 18:43:00,43.0,37.0,30.11,NNW,330,6.0,13.0,78,0.00,,,0.78,,2013-10-15 23:43:00,
2013-10-15 18:52:00,42.0,36.0,30.11,NW,309,5.0,10.0,80,0.00,,,0.78,,2013-10-15 23:52:00,
2013-10-15 19:12:00,41.0,36.0,30.11,NW,307,2.0,8.0,82,0.00,,,0.78,,2013-10-16 00:12:00,
2013-10-15 19:22:00,40.0,36.0,30.11,NW,308,2.0,7.0,84,0.00,,,0.73,,2013-10-16 00:22:00,
2013-10-15 19:42:00,39.0,35.0,30.12,NW,318,1.0,5.0,85,0.00,,,0.73,,2013-10-16 00:42:00,
2013-10-15 19:52:00,39.0,35.0,30.12,North,356,2.0,5.0,85,0.00,,,0.73,,2013-10-16 00:52:00,
2013-10-15 20:11:00,38.0,34.0,30.13,NW,307,1.0,6.0,86,0.00,,,0.73,,2013-10-16 01:11:00,
2013-10-15 20:22:00,37.0,34.0,30.13,NW,316,1.0,5.0,87,0.00,,,0.62,,2013-10-16 01:22:00,
2013-10-15 20:42:00,36.0,33.0,30.12,West,276,0.0,2.0,88,0.00,,,0.62,,2013-10-16 01:42:00,
2013-10-15 20:52:00,35.0,32.0,30.12,West,278,0.0,1.0,90,0.00,,,0.62,,2013-10-16 01:52:00,
2013-10-15 21:12:00,34.0,31.0,30.12,West,271,1.0,2.0,90,0.00,,,0.62,,2013-10-16 02:12:00,
2013-10-15 21:22:00,34.0,31.0,30.12,West,260,0.0,3.0,90,0.00,,,0.53,,2013-10-16 02:22:00,
2013-10-15 21:42:00,34.0,32.0,30.12,West,278,0.0,2.0,91,0.00,,,0.53,,2013-10-16 02:42:00,
2013-10-15 21:52:00,33.0,31.0,30.12,West,280,0.0,2.0,91,0.00,,,0.53,,2013-10-16 02:52:00,
2013-10-15 22:11:00,33.0,31.0,30.12,West,274,0.0,2.0,91,0.00,,,0.53,,2013-10-16 03:11:00,
2013-10-15 22:22:00,32.0,30.0,30.12,West,267,0.0,2.0,92,0.00,,,0.45,,2013-10-16 03:22:00,
2013-10-15 22:45:00,32.0,30.0,30.12,WNW,283,0.0,2.0,92,0.00,,,0.45,,2013-10-16 03:45:00,
2013-10-15 22:55:00,32.0,30.0,30.11,WNW,284,0.0,2.0,93,0.00,,,0.45,,2013-10-16 03:55:00,
2013-10-15 23:14:00,32.0,30.0,30.11,WSW,249,1.0,2.0,92,0.00,,,0.45,,2013-10-16 04:14:00,
2013-10-15 23:24:00,31.0,29.0,30.11,WSW,253,0.0,1.0,92,0.00,,,0.35,,2013-10-16 04:24:00,
2013-10-15 23:43:00,31.0,29.0,30.11,WSW,257,0.0,1.0,92,0.00,,,0.35,,2013-10-16 04:43:00,
2013-10-15 23:54:00,31.0,29.0,30.11,West,281,0.0,2.0,93,0.00,,,0.35,,2013-10-16 04:54:00,